Regional Weather Roundup
Issued by NWS

Home | Current Version | Previous Version | Text Only | Print | Product List | Glossary On
Versions: 1 2 3 4 5 6 7 8 9 10 11 12 13 14 15 16 17 18 19 20 21 22 23 24 25 26 27 28 29 30 31 32 33 34 35 36 37 38 39 40 41 42 43 44 45 46 47 48 49 50
000
ASUS43 KLOT 221812
RWRIL

ILLINOIS REGIONAL WEATHER ROUNDUP
NATIONAL WEATHER SERVICE CHICAGO/ROMEOVILLE IL
1200 PM CST SUN JAN 22 2017

NOTE: "FAIR" INDICATES FEW OR NO CLOUDS BELOW 12,000 FEET WITH NO
SIGNIFICANT WEATHER AND/OR OBSTRUCTIONS TO VISIBILITY.

* THESE STATIONS ARE NOT UNDER NWS QUALITY CONTROL. THEY ALSO MAY NOT
  REPORT WEATHER SUCH AS PRECIPITATION OR FOG.

ILZ001-002-007-009-015-016-024-221900-
NORTHWEST ILLINOIS

CITY           SKY/WX    TMP DP  RH WIND       PRES   REMARKS
MOLINE         CLOUDY    41  36  82 W6        29.65F
6HR MIN TEMP:  31; 6HR MAX TEMP:  41;

STERLING*      CLOUDY    36  36 100 N6        29.66F WCI  31
SAVANNA*       CLOUDY    34  34 100 CALM      29.66F FOG
$$

ILZ003-004-008-010-011-017-018-221900-
NORTH CENTRAL ILLINOIS

CITY           SKY/WX    TMP DP  RH WIND       PRES   REMARKS
ROCKFORD       CLOUDY    40  36  86 N7        29.66F FOG
6HR MIN TEMP:  33; 6HR MAX TEMP:  40;

FREEPORT*      CLOUDY    34  34 100 CALM      29.67F FOG
ROCHELLE*      CLOUDY    35  35 100 N6        29.65F FOG     WCI  30
DE KALB*       CLOUDY    37  37  99 N7        29.64F FOG     WCI  31
PERU*          CLOUDY    41  38  89 N8        29.64F
$$

ILZ005-006-012>014-019>023-221900-
NORTHEAST ILLINOIS

CITY           SKY/WX    TMP DP  RH WIND       PRES   REMARKS
CHICAGO-OHARE  CLOUDY    45  39  79 CALM      29.62F
6HR MIN TEMP:  40; 6HR MAX TEMP:  45;

CHICAGO-MIDWAY CLOUDY    43  40  89 NE5       29.62F FOG
6HR MIN TEMP:  41; 6HR MAX TEMP:  43;

AURORA         CLOUDY    39  37  92 N7        29.63F FOG     WCI  34
6HR MIN TEMP:  30; 6HR MAX TEMP:  39;

LANSING*       CLOUDY    40  40 100 NE6       29.62F FOG
JOLIET*        CLOUDY    45  43  93 N6        29.62F FOG
WAUKEGAN       CLOUDY    45  39  79 NW3       29.62F
6HR MIN TEMP:  38; 6HR MAX TEMP:  45;

DUPAGE AIRPORT CLOUDY    42  39  89 N7        29.62F
6HR MIN TEMP:  30; 6HR MAX TEMP:  42;

KANKAKEE*      CLOUDY    43  42  97 N7        29.60F FOG
WHEELING       CLOUDY    44  38  79 E5        29.64F
6HR MIN TEMP:  40; 6HR MAX TEMP:  45;

MORRIS*        CLOUDY    41  40  98 CALM      29.61F FOG
ROMEOVILLE*    CLOUDY    42  42 100 NE5       29.62F FOG
NORTHERLY ISL    N/A     37  36  96 N5          N/A  WCI  33
$$

LMZ740>746-221900-
SOUTHERN LAKE MICHIGAN

STATION/POSITION SKY/WX   TEMP    WIND        PRES    VSBY  WAVE
                          AIR SEA DIR/SP/G                  HT/PER
                          (F)     (DEG/KT/KT) (MB)    (MI)  (FT/S)
HARRISON CRIB              39      50/  1/  1   N/A
BURNHAM HARBOR             36      40/  4/  4   N/A
CALUMET HARBOR             39     340/  6/  8 1003.0F
BURNS HARBOR               35      40/  6/  8 1004.1F
MICHIGAN CITY              35      10/  5/  6   N/A
$$

ILZ025>027-034>036-040-047-049-050-058-095>099-221900-
WEST-CENTRAL ILLINOIS

CITY           SKY/WX    TMP DP  RH WIND       PRES   REMARKS
QUINCY         CLOUDY    46  40  79 N16       29.62F
GALESBURG*     CLOUDY    41  40  95 N9        29.65S
MACOMB*        CLOUDY    42  41  97 N12       29.65F
JACKSONVILLE*  CLOUDY    49  43  79 N13       29.57F
PITTSFIELD*    CLOUDY    50  43  77 N15       29.58F
$$

ILZ028>032-037-038-041>044-048-051>054-059>061-221900-
CENTRAL ILLINOIS

CITY           SKY/WX    TMP DP  RH WIND       PRES   REMARKS
PONTIAC        CLOUDY    42  42 100 N10       29.60F FOG
BLOOMINGTON    CLOUDY    43  41  93 N14       29.59F
DECATUR        PTSUNNY   49  47  93 NE16      29.54F
PEORIA         CLOUDY    46  40  79 VRB7      29.62F
6HR MIN TEMP:  38; 6HR MAX TEMP:  47;

LACON*         CLOUDY    40  40 100 N7        29.63F FOG
LINCOLN*       CLOUDY    51  45  81 N15       29.57F
SPRINGFIELD    PTSUNNY   50  45  83 N13       29.56F
6HR MIN TEMP:  40; 6HR MAX TEMP:  50;

TAYLORVILLE    CLOUDY    46  45  95 N17       29.54F FOG
6HR MIN TEMP:  38; 6HR MAX TEMP:  46;

$$

ILZ033-039-045-046-055>057-062-063-221900-
EAST-CENTRAL ILLINOIS

CITY           SKY/WX    TMP DP  RH WIND       PRES   REMARKS
CHAMPAIGN      SUNNY     50  45  83 N12       29.54F
RANTOUL*       CLOUDY    47  46  94 N9        29.56F FOG
MATTOON        PTSUNNY   56  52  86 NE9       29.51F
PARIS*         PTSUNNY   55  52  89 NE6       29.54F
$$

ILZ079-100>102-221900-
SOUTHWEST ILLINOIS

CITY           SKY/WX    TMP DP  RH WIND       PRES   REMARKS
ALTON          CLOUDY    48  45  87 N12G17    29.52F FOG
BELLEVILLE     PTSUNNY   57  50  78 N13       29.47F
CAHOKIA*       MOSUNNY   52  44  74 N16       29.50F
SPARTA*        MOSUNNY   57  51  81 N5        29.48S
$$

ILZ064>066-069>071-074>076-080>082-084>086-088>090-092>094-221900-
SOUTH-CENTRAL ILLINOIS

CITY           SKY/WX    TMP DP  RH WIND       PRES   REMARKS
CARBONDALE     MOSUNNY   61  53  75 NE5       29.44F
6HR MIN TEMP:  47; 6HR MAX TEMP:  61;

CAIRO*         PTSUNNY   57  53  86 N5        29.41F
EFFINGHAM*     CLOUDY    56  53  91 N6        29.51F
MARION         PTSUNNY   64  55  72 E6        29.45F
MT. VERNON     MOSUNNY   61  52  72 NE9       29.45F
CENTRALIA*     CLOUDY    60  54  79 NE10      29.46F
SALEM*         CLOUDY    58  52  79 NE12      29.48F
METROPOLIS*    DRIZZLE   60  53  78 CALM      29.41F
$$

ILZ067-068-072-073-078-083-087-091-221900-
SOUTHEAST ILLINOIS

CITY           SKY/WX    TMP DP  RH WIND       PRES   REMARKS
LAWRENCEVILLE  CLOUDY    58  52  80 NE14      29.48F
FLORA*         CLOUDY    59  53  79 N7        29.48F
FAIRFIELD*     CLOUDY    58  52  79 NE8       29.44F
HARRISBURG*    CLOUDY    58  53  81 E8        29.44F
ROBINSON*      CLOUDY    56  51  81 N9        29.51F
CARMI*         CLOUDY    59  53  78 NE10      29.44F
$$

ABBREVIATIONS USED IN REMARKS
   TC - TEMPERATURE IN CELSIUS
  WCI - WIND CHILL INDEX
   HX - HEAT INDEX
  VSB - VISIBILITY
$$





USA.gov is the U.S. government's official web portal to all federal, state and local government web resources and services.